Hourly Weather Roundup
Issued by NWS Central Illinois

Home | Current Version | Previous Version | Text Only | Print | Product List | Glossary On
Versions: 1 2 3 4 5 6 7 8 9 10 11 12 13 14 15 16 17 18 19 20 21 22 23 24 25 26 27 28 29 30 31 32 33 34 35 36 37 38 39 40 41 42 43 44 45 46 47 48 49 50
000
NZUS43 KILX 180210
HWRILX

Area Weather Roundup
National Weather Service Lincoln IL
800 PM CST SUN DEC 17 2017

NOTE:  "FAIR" indicates few or no clouds below 12,000 feet, with
       no sigificant weather and/or obstructions to visibility.


CITY           SKY/WX    TMP DP  RH WIND       PRES   REMARKS
Bloomington    CLOUDY    43  39  86 S12       30.02F
Champaign      CLOUDY    44  39  82 S14       30.06R
Danville       NOT AVBL
Decatur        CLOUDY    42  38  85 S14       30.05S WCI  35
Effingham      CLOUDY    44  42  92 SE9       30.09F
Flora          CLOUDY    43  42  97 S6        30.11S FOG
Galesburg      CLOUDY    42  42 100 S3        30.00S FOG
Jacksonville   CLOUDY    46  36  67 SW9       30.04R
Lacon          CLOUDY    44  41  89 SE5       30.00F
Lawrenceville  CLOUDY    43  40  89 S7        30.13R
Litchfield     CLOUDY    44  41  87 S12       30.06R
$$


CITY           SKY/WX    TMP DP  RH WIND       PRES   REMARKS
Lincoln        CLOUDY    45  42  89 S12       30.03S
Macomb         CLOUDY    44  44  97 SW7       30.02S FOG
Mattoon        CLOUDY    43  40  89 S9        30.07R
Mt Carmel AP   CLOUDY    42  40  91 S3        30.12S
Olney-Noble AP CLOUDY    42  40  93 S6        30.12S FOG
Paris AP       CLOUDY    42  39  88 S9        30.10R
Peoria         CLOUDY    45  41  86 S6        30.01F
Pontiac        CLOUDY    45  40  83 S10       30.02F
Rantoul        CLOUDY    45  40  85 S9        30.06S
Robinson       CLOUDY    42  40  93 S5        30.13R
Springfield    CLOUDY    48  41  76 S12       30.03S
Taylorville    NOT AVBL
$$

...REGIONAL REPORTS...


CITY           SKY/WX    TMP DP  RH WIND       PRES   REMARKS
Chicago O`Hare CLOUDY    42  30  62 SW3       29.99S
Kankakee       CLOUDY    43  37  79 SW9       30.04S
Moline         CLOUDY    40  39  97 E3        29.98F FOG
Mount Sterling CLOUDY    44  43  97 SW7       30.02S
Mount Vernon   CLOUDY    45  43  93 S8        30.10F
Pittsfield     CLOUDY    46  44  95 SW6       30.04S
Quincy         CLOUDY    45  43  93 SW7       30.02S
Rockford       CLOUDY    36  33  89 CALM      30.01R FOG
$$


CITY           SKY/WX    TMP DP  RH WIND       PRES   REMARKS
Burlington     CLOUDY    42  42 100 S5        29.99S FOG
Cedar Rapids   CLOUDY    36  35  96 S6        29.96F FOG     WCI  31
Des Moines     CLOUDY    36  31  82 W7        29.99R WCI  30
Kirksville     CLOUDY    44  32  62 SW9       30.02R HAZE
Ottumwa        CLOUDY    39  32  76 CALM      29.98S FOG
St Louis       CLOUDY    49  43  80 SW9       30.07R
$$


CITY           SKY/WX    TMP DP  RH WIND       PRES   REMARKS
Terre Haute    CLOUDY    44  38  79 S10       30.10S
Evansville     CLOUDY    42  42 100 S5        30.14S FOG
Indianapolis   MOCLDY    38  34  85 S7        30.09R WCI  33
Lafayette      CLOUDY    41  38  89 S3        30.07R
Madison        CLOUDY    32  29  88 SE5       29.99F FOG     WCI  27
Milwaukee      CLOUDY    35  33  92 NW5       29.98F FOG     WCI  31
$$






USA.gov is the U.S. government's official web portal to all federal, state and local government web resources and services.